Grand Island, NE

8:44 PM CDT on July 24, 2017 (GMT -0500)
Central Nebraska Regional

Weather History for KGRI - August, 2013

Change the Weather History Date:

Monday, August 5, 2013

  Actual Average Record
Temperature  
Mean Temperature 78 °F 75 °F  
Max Temperature 84 °F 86 °F 111 °F (1934)
Min Temperature 71 °F 65 °F 51 °F (1994)
Degree Days  
Heating Degree Days 0 0  
Month to date heating degree days 0 0  
Since 1 June heating degree days 24 26  
Since 1 July heating degree days 3 2  
Cooling Degree Days 13 11  
Month to date cooling degree days 45 55  
Year to date cooling degree days 760 682  
Since 1 June cooling degree days 665 617  
Growing Degree Days 28 (Base 50)    
Moisture  
Dew Point 71 °F    
Average Humidity 85    
Maximum Humidity 100    
Minimum Humidity 69    
Precipitation  
Precipitation 0.00 in 0.11 in 1.90 in (1942)
Month to date precipitation 0.92 0.54  
Year to date precipitation 17.31 18.19  
Snow  
Snow 0.00 in 0.00 in - ()
Month to date snowfall 0.0 0.0  
Since 1 June snowfall 0.0 0.0  
Since 1 July snowfall 0.0 0.0  
Snow Depth 0.00 in    
Sea Level Pressure  
Sea Level Pressure 29.92 in    
Wind  
Wind Speed 7 mph (South)    
Max Wind Speed 16 mph    
Max Gust Speed 20 mph    
Visibility 9 miles    
Events      
T = Trace of Precipitation, MM = Missing Value Source: NWS Daily Summary

Daily Weather History Graph

Daily Weather History Graph

Search for Another Location

Airport or City:

Trip Planner

Search our weather history database for the weather conditions in past years. The results will help you decide how hot, cold, wet, or windy it might be!

Date:

Astronomy

Aug. 05, 2013 Rise Set
Actual Time 6:33 AM CDT 8:44 PM CDT
Civil Twilight 6:02 AM CDT 9:14 PM CDT
Nautical Twilight 5:25 AM CDT 9:51 PM CDT
Astronomical Twilight 4:44 AM CDT 10:32 PM CDT
Moon 5:30 AM CDT (8/5) 7:45 PM CDT (8/5)
Length of Visible Light 15h 11m
Length of Day
14h 10m
Waning Crescent, 1% of the Moon is Illuminated
Aug 5
Waning Crescent
Aug 6
New
Aug 14
First Quarter
Aug 20
Full
Aug 28
Last Quarter

Hourly Weather History & Observations

Time (CDT) Temp. Heat Index Dew Point Humidity Pressure Visibility Wind Dir Wind Speed Gust Speed Precip Events Conditions
12:37 AM 71.6 °F - 69.8 °F 94% 30.04 in 10.0 mi SSE 8.1 mph - N/A   Overcast
12:53 AM 72.0 °F - 70.0 °F 93% 30.00 in 10.0 mi SSE 6.9 mph - N/A   Overcast
1:53 AM 72.0 °F - 70.0 °F 93% 29.97 in 10.0 mi South 12.7 mph - N/A   Overcast
2:53 AM 72.0 °F - 70.0 °F 93% 29.93 in 10.0 mi South 10.4 mph - N/A   Overcast
3:28 AM 71.6 °F - 69.8 °F 94% 29.97 in 6.0 mi South 9.2 mph - N/A   Overcast
3:53 AM 71.1 °F - 70.0 °F 96% 29.92 in 4.0 mi South 11.5 mph - N/A   Overcast
4:20 AM 71.6 °F - 71.6 °F 100% 29.96 in 2.5 mi South 8.1 mph - N/A   Overcast
4:33 AM 71.6 °F - 71.6 °F 100% 29.95 in 3.0 mi South 8.1 mph - N/A   Overcast
4:53 AM 72.0 °F - 71.1 °F 97% 29.91 in 4.0 mi South 8.1 mph - N/A   Overcast
5:37 AM 71.6 °F - 69.8 °F 94% 29.95 in 10.0 mi SSW 11.5 mph - N/A   Overcast
5:53 AM 72.0 °F - 70.0 °F 93% 29.91 in 10.0 mi South 8.1 mph - N/A   Overcast
6:09 AM 71.6 °F - 69.8 °F 94% 29.96 in 10.0 mi South 6.9 mph - N/A   Overcast
6:53 AM 72.0 °F - 69.1 °F 91% 29.91 in 10.0 mi South 9.2 mph - N/A   Overcast
7:53 AM 73.0 °F - 69.1 °F 87% 29.93 in 10.0 mi SSW 8.1 mph - N/A   Overcast
8:53 AM 73.0 °F - 69.1 °F 87% 29.94 in 10.0 mi SSW 8.1 mph - N/A   Overcast
9:53 AM 73.9 °F - 69.1 °F 85% 29.94 in 10.0 mi SW 9.2 mph - N/A   Overcast
10:53 AM 75.9 °F - 69.1 °F 79% 29.95 in 10.0 mi West 9.2 mph - N/A   Overcast
11:53 AM 77.0 °F - 69.1 °F 76% 29.91 in 10.0 mi Calm Calm - N/A   Overcast
12:15 PM 78.8 °F - 69.8 °F 74% 29.97 in 10.0 mi Calm Calm - N/A   Mostly Cloudy
12:53 PM 77.0 °F - 70.0 °F 79% 29.93 in 10.0 mi Calm Calm - N/A   Overcast
1:53 PM 79.0 °F - 70.0 °F 74% 29.90 in 10.0 mi SSE 8.1 mph - N/A   Mostly Cloudy
2:22 PM 80.6 °F 84.6 °F 71.6 °F 74% 29.94 in 10.0 mi SSE 8.1 mph - N/A   Scattered Clouds
2:53 PM 81.0 °F 84.9 °F 71.1 °F 72% 29.89 in 10.0 mi South 9.2 mph - N/A   Partly Cloudy
3:53 PM 82.0 °F 86.7 °F 72.0 °F 71% 29.86 in 10.0 mi South 12.7 mph - N/A   Clear
4:53 PM 82.0 °F 87.4 °F 73.0 °F 74% 29.87 in 10.0 mi South 6.9 mph - N/A   Partly Cloudy
5:53 PM 82.9 °F 88.8 °F 73.0 °F 72% 29.85 in 9.0 mi SE 5.8 mph - N/A   Scattered Clouds
5:56 PM 82.4 °F 88.2 °F 73.4 °F 74% 29.90 in 9.0 mi SE 5.8 mph - N/A   Mostly Cloudy
6:53 PM 82.0 °F 86.7 °F 72.0 °F 71% 29.88 in 10.0 mi East 5.8 mph - N/A   Scattered Clouds
7:53 PM 79.0 °F - 72.0 °F 79% 29.86 in 10.0 mi SSE 6.9 mph - N/A   Clear
8:53 PM 75.9 °F - 72.0 °F 87% 29.86 in 10.0 mi ESE 3.5 mph - N/A   Clear
9:53 PM 73.9 °F - 72.0 °F 93% 29.85 in 10.0 mi East 3.5 mph - N/A   Clear
10:53 PM 73.9 °F - 72.0 °F 93% 29.88 in 9.0 mi Calm Calm - N/A   Clear
11:53 PM 72.0 °F - 72.0 °F 100% 29.86 in 4.0 mi NNE 4.6 mph - N/A   Clear